Malaga, WA

8:59 PM PST on February 11, 2016 (GMT -0800)
Pangborn Memorial

Weather History for KEAT - June, 2013

Change the Weather History Date:

Tuesday, June 11, 2013

  Actual Average Record
Temperature  
Mean Temperature 54 °F 58 °F  
Max Temperature 68 °F 71 °F 93 °F (1986)
Min Temperature 40 °F 46 °F 35 °F (2008)
Degree Days  
Heating Degree Days 11 7  
Month to date heating degree days 73 85  
Since 1 June heating degree days 73 85  
Since 1 July heating degree days 6681 7036  
Cooling Degree Days 0 0  
Month to date cooling degree days 3 0  
Year to date cooling degree days 7 5  
Since 1 June cooling degree days 3 0  
Growing Degree Days 14 (Base 50)    
Moisture  
Dew Point 35 °F    
Average Humidity 36    
Maximum Humidity 48    
Minimum Humidity 22    
Precipitation  
Precipitation 0.00 in 0.05 in 0.21 in (2008)
Month to date precipitation 0.39 0.65  
Year to date precipitation 5.18 8.68  
Snow  
Snow 0.00 in 0.00 in - ()
Month to date snowfall 0.0 0.0  
Since 1 June snowfall 0.0 0.0  
Since 1 July snowfall 48.2 54.1  
Snow Depth 0.00 in    
Sea Level Pressure  
Sea Level Pressure 29.84 in    
Wind  
Wind Speed 17 mph (NW)    
Max Wind Speed 25 mph    
Max Gust Speed 33 mph    
Visibility 10 miles    
Events      
T = Trace of Precipitation, MM = Missing Value Source: NWS Daily Summary

Daily Weather History Graph

Daily Weather History Graph

Search for Another Location

Airport or City:

Trip Planner

Search our weather history database for the weather conditions in past years. The results will help you decide how hot, cold, wet, or windy it might be!

Date:

Astronomy

Jun. 11, 2013 Rise Set
Actual Time 5:03 AM PDT 8:57 PM PDT
Civil Twilight 4:23 AM PDT 9:37 PM PDT
Nautical Twilight 3:28 AM PDT 10:32 PM PDT
Astronomical Twilight 2:05 AM PDT 11:57 PM PDT
Moon 8:00 AM PDT (6/11) 10:52 PM PDT (6/11)
Length of Visible Light 17h 14m
Length of Day
15h 53m
Waxing Crescent, 9% of the Moon is Illuminated
Jun 11
Waxing Crescent
Jun 16
First Quarter
Jun 23
Full
Jun 29
Last Quarter
Jul 8
New

Hourly Weather History & Observations

Time (PDT) Temp. Dew Point Humidity Pressure Visibility Wind Dir Wind Speed Gust Speed Precip Events Conditions
12:55 AM 62.1 °F 37.9 °F 41% 29.76 in 10.0 mi NW 16.1 mph - N/A   Clear
1:55 AM 60.1 °F 37.9 °F 44% 29.77 in 10.0 mi NW 11.5 mph 24.2 mph N/A   Clear
2:55 AM 59.0 °F 37.9 °F 46% 29.77 in 10.0 mi NNW 13.8 mph - N/A   Clear
3:55 AM 57.9 °F 37.9 °F 47% 29.76 in 10.0 mi NW 13.8 mph - N/A   Clear
4:55 AM 57.0 °F 37.0 °F 47% 29.77 in 10.0 mi NW 12.7 mph - N/A   Clear
5:55 AM 57.0 °F 37.0 °F 47% 29.78 in 10.0 mi NW 11.5 mph - N/A   Clear
6:55 AM 59.0 °F 39.0 °F 48% 29.79 in 10.0 mi NW 13.8 mph - N/A   Clear
7:55 AM 61.0 °F 39.0 °F 44% 29.80 in 10.0 mi WNW 17.3 mph 23.0 mph N/A   Clear
8:55 AM 62.1 °F 39.0 °F 43% 29.80 in 10.0 mi WNW 16.1 mph - N/A   Clear
9:55 AM 66.0 °F 39.0 °F 37% 29.80 in 10.0 mi WNW 21.9 mph 28.8 mph N/A   Clear
10:55 AM 68.0 °F 39.0 °F 35% 29.80 in 10.0 mi NW 19.6 mph 27.6 mph N/A   Clear
11:55 AM 70.0 °F 37.9 °F 31% 29.81 in 10.0 mi NW 24.2 mph - N/A   Clear
12:55 PM 70.0 °F 36.0 °F 29% 29.82 in 10.0 mi NW 21.9 mph 27.6 mph N/A   Clear
1:55 PM 71.1 °F 33.1 °F 25% 29.83 in 10.0 mi NW 23.0 mph 26.5 mph N/A   Clear
2:55 PM 71.1 °F 30.9 °F 23% 29.83 in 10.0 mi NW 17.3 mph 31.1 mph N/A   Clear
3:55 PM 71.1 °F 30.0 °F 22% 29.85 in 10.0 mi WNW 23.0 mph 32.2 mph N/A   Clear
4:55 PM 70.0 °F 28.9 °F 22% 29.86 in 10.0 mi NW 25.3 mph 32.2 mph N/A   Clear
5:55 PM 68.0 °F 30.0 °F 24% 29.87 in 10.0 mi NW 24.2 mph 33.4 mph N/A   Clear
6:55 PM 66.0 °F 30.9 °F 27% 29.89 in 10.0 mi NW 24.2 mph 31.1 mph N/A   Clear
7:55 PM 64.0 °F 32.0 °F 30% 29.92 in 10.0 mi NW 19.6 mph - N/A   Clear
8:55 PM 60.1 °F 33.1 °F 36% 29.95 in 10.0 mi WNW 16.1 mph - N/A   Clear
9:55 PM 57.9 °F 34.0 °F 41% 29.98 in 10.0 mi WNW 16.1 mph - N/A   Clear
10:55 PM 57.0 °F 33.1 °F 40% 29.99 in 10.0 mi WNW 12.7 mph - N/A   Clear
11:55 PM 55.0 °F 33.1 °F 43% 30.00 in 10.0 mi NW 9.2 mph - N/A   Clear